{"data":{"norad_id":65381,"intl_designator":"2025-191C","name":"STARLINK-35028","alt_names":[],"object_type":"PAYLOAD","status":"ACTIVE","operator":null,"country":"US","launch_date":"2025-08-30","launch_site_code":"AFWTR","launch_vehicle":null,"mission":null,"orbit_class":"UNKNOWN","rcs_meters":null,"size_class":null,"mass_kg":null,"dimensions":null,"purposes":["comms"],"wikipedia_slug":null,"has_3d_model":false,"image_url":null,"decayed_at":null,"tle_current":{"epoch":"2026-05-25T02:44:09.471264Z","epoch_age_seconds":55391,"freshness":"FRESH","line1":"1 65381U 25191C   26145.11399851  .00004471  00000+0  31367-3 0  9994","line2":"2 65381  97.4523  16.5510 0002259 101.7139 258.4342 15.05659516 41773","mean_motion":15.05659516,"eccentricity":0.0002259,"inclination_deg":97.4523,"raan_deg":16.551,"arg_perigee_deg":101.7139,"mean_anomaly_deg":258.4342,"bstar":0.00031367,"rev_number":4177,"period_min":95.639152457626,"perigee_km":547.91701568213,"apogee_km":551.04691393043,"semimajor_km":6927.6189648063,"source":"CELESTRAK","updated_at":"2026-05-25T13:38:20.771860Z"}}}